[[{"header":{"parameterUnit":"m.s-1","parameterCategory":1,"la1":30.2991,"la2":30.254,"lo1":-89.0895,"lo2":-89.0444,"dy":0.0017,"dx":0.0017,"nx":28,"ny":28,"refTime":"2025-11-07T03:00:00:Z","depth":0,"parameterNumber":2,"parameterNumberName":"U-component_of_WINDS"},"data":[0,0,0,0,0,0,0,0,0,0,0,0,0,0,0,0,0,0,0,0,0,0,0,0,0,0,0,0,0,0,0,0,0,0,0,0,0,0,0,0,0,0,0,0,0,0,0,0,0,0,0,0,0,0,0,0,0,0,2.0921,2.0922,0,2.1028,2.103,2.1031,2.0972,2.0969,2.0966,2.0963,2.1075,2.108,2.1086,0,0,0,0,0,0,0,0,0,0,0,0,0,2.0666,2.0671,2.0921,2.0922,2.0924,2.1028,2.103,2.1031,2.0972,2.0969,2.0965,2.0962,2.1073,2.108,2.1086,0,0,0,0,0,0,0,0,0,0,0,0,0,2.0776,2.0673,2.0921,2.0907,2.0907,2.1028,2.103,2.1032,2.0973,2.0968,2.0964,2.096,2.1071,2.1079,2.1087,2.1229,0,0,2.1114,2.1117,0,0,0,0,0,0,0,0,2.077,2.0785,2.0908,2.0908,2.0908,2.0982,2.0981,2.1098,2.0974,2.0948,2.0963,2.0958,2.1048,2.1058,2.1088,2.1234,2.1239,2.1114,2.112,2.1123,2.1126,0,0,0,0,0,0,0,2.0762,2.078,2.0963,2.0909,2.091,2.0896,2.0906,2.1003,2.1021,2.095,2.0946,2.0959,2.1047,2.108,2.109,2.1241,2.1114,2.1122,2.1127,2.113,2.1509,2.1513,0,0,0,0,0,0,2.0755,2.0774,2.096,2.0967,2.0826,2.0904,2.0916,2.0963,2.102,2.1024,2.0963,2.0956,2.1067,2.108,2.1094,2.1263,2.1123,2.1131,2.1136,2.1504,2.151,2.1515,0,0,0,0,0,0,2.075,2.0772,2.0956,2.0869,2.0892,2.0913,2.0966,2.0967,2.1,2.103,2.1033,2.0993,2.1064,2.1081,2.1196,2.1266,2.1135,2.1143,2.1498,2.1506,2.1513,2.1604,0,0,0,0,0,0,2.0743,2.0771,2.0825,2.0871,2.0897,2.1056,2.0971,2.0973,2.1015,2.1007,2.1059,2.1063,2.1062,2.1183,2.1204,2.1276,2.115,2.1492,2.1502,2.151,2.1595,2.1614,2.163,0,0,0,0,0,2.0734,2.0847,2.0828,2.085,2.0964,2.106,2.1075,2.1071,2.1021,2.1075,2.1094,2.1062,2.1255,2.1195,2.1219,2.1294,2.1487,2.1499,2.1509,2.1587,2.161,2.163,0,0,0,0,0,0,2.0809,2.0852,2.0832,2.0963,2.1008,2.105,2.1119,2.1095,2.1156,2.1146,2.1139,2.1151,2.127,2.1293,2.1226,2.1434,2.1363,2.138,2.1415,2.1437,2.1454,2.1446,2.1157,0,0,0,0,0,2.084,2.0914,2.0948,2.106,2.1084,2.1098,2.1139,2.1132,2.1179,2.1198,2.1226,2.1273,2.1344,2.1392,2.1459,2.1598,2.1608,2.1661,2.1678,2.1693,2.1707,2.1782,2.1806,2.1551,2.1551,2.1551,0,0,2.0906,2.0939,2.0987,2.1076,2.1111,2.1188,2.1114,2.1199,2.1257,2.1211,2.1321,2.1343,2.1395,2.1522,2.1579,2.1545,2.178,2.1707,2.1718,2.1725,2.1796,2.182,2.1842,2.1559,2.1557,2.1556,0,0,2.1066,2.1099,2.1196,2.1231,2.1284,2.1292,2.1316,2.1361,2.1374,2.1483,2.1451,2.1519,2.1642,2.1681,2.1717,2.1891,2.1863,2.1913,2.2005,2.2078,2.2098,2.2116,2.2179,2.2202,2.1927,2.1927,2.1927,0,2.1142,2.1257,2.1249,2.1336,2.1377,2.1338,2.1437,2.1472,2.1545,2.1574,2.1534,2.1687,2.172,2.1856,2.1898,2.1928,2.1955,2.1908,2.2096,2.2114,2.213,2.219,2.2214,2.1933,2.1932,2.1932,2.1931,0,2.1348,2.1428,2.15,2.157,2.1619,2.1712,2.1718,2.1768,2.1756,2.1769,2.1881,2.1918,2.1993,2.2024,2.2014,2.2159,2.2136,2.2096,2.2026,2.2161,2.2217,2.224,2.1941,2.1939,2.1937,2.1936,0,0,2.1559,2.1623,2.165,2.1682,2.1737,2.1799,2.1889,2.1961,2.2005,2.2056,2.2132,2.2237,2.22,2.2241,2.2234,2.2299,2.2435,2.2251,2.2253,2.2285,2.2598,2.2629,2.2655,2.2417,2.2421,2.2425,2.2594,0,2.1724,2.1882,2.1877,2.2025,2.2099,2.2064,2.2143,2.2185,2.2199,2.2264,2.2279,2.2354,2.23,2.2324,2.2387,2.2406,2.2498,2.2393,2.2489,2.2492,2.2478,2.2684,2.2717,2.2875,2.2616,2.262,2.2622,0,2.1937,2.1995,2.215,2.2194,2.2225,2.2296,2.2362,2.2424,2.2472,2.2477,2.2523,2.2506,2.2598,2.2524,2.2651,2.258,2.2618,2.2634,2.264,2.2649,2.2566,2.2701,2.2925,2.295,2.2657,2.2654,2.2652,0,2.2077,2.2193,2.2301,2.2329,2.2383,2.2434,2.2459,2.2502,2.2545,2.2603,2.2631,2.2699,2.2736,2.2789,2.2791,2.2736,2.292,2.2845,2.2928,2.2928,2.2969,2.2967,2.3204,2.2992,2.2992,2.2991,2.2991,0,2.2261,2.2358,2.2364,2.2431,2.2538,2.2532,2.2638,2.2658,2.2697,2.2767,2.2739,2.2806,2.2804,2.2871,2.2873,2.2979,2.2996,2.3003,2.3003,2.3006,2.3006,2.3032,2.3022,2.2998,2.2996,2.2995,2.2994,0,2.2436,2.2444,2.2559,2.2601,2.2613,2.2691,2.2726,2.279,2.2801,2.289,2.291,2.2928,2.3006,2.3012,2.3103,2.3104,2.3233,2.322,2.3217,2.3215,2.3297,2.329,2.3561,2.3596,2.336,2.3363,2.3365,0,2.2554,2.2627,2.2676,2.2721,2.2749,2.2821,2.2866,2.2862,2.2909,2.2969,2.3025,2.31,2.3161,2.3287,2.3308,2.3377,2.3366,2.3457,2.3377,2.3378,2.3369,2.3365,2.3373,2.3473,2.3475,2.3477,2.3479,0,2.2762,2.2763,2.2827,2.2894,2.2947,2.3,2.3048,2.3087,2.3089,2.3143,2.3223,2.3269,2.3361,2.3437,2.3504,2.353,2.3506,2.3504,2.3527,2.3532,2.3527,2.3532,2.326,2.3498,2.3496,2.3495,2.3494,2.3493,2.2913,2.2976,2.3021,2.3094,2.313,2.3177,2.3238,2.3257,2.3323,2.3397,2.3391,2.3479,2.3524,2.3613,2.3643,2.3712,2.3682,2.3715,2.3723,2.3732,2.3741,2.3515,2.3725,2.3724,2.3723,2.3723,2.3723,0,2.3121,2.3147,2.3215,2.3284,2.3341,2.3312,2.3365,2.3415,2.3493,2.3537,2.3596,2.3688,2.376,2.3787,2.3858,2.3908,2.3899,2.3927,2.3924,2.393,2.3764,2.3737,2.3933,2.3933,2.3933,2.3933,2.3933,2.3933,2.3236,2.3342,2.3348,2.3472,2.3498,2.3584,2.3617,2.3659,2.3694,2.3798,2.3858,2.3874,2.3912,2.3985,2.4051,2.4056,2.4084,2.4118,2.4119,2.3963,2.3942,2.3922,2.3897,2.4124,2.4124,2.428,2.4282,2.4283]},{"header":{"parameterUnit":"m.s-1","parameterCategory":1,"la1":30.2991,"la2":30.254,"lo1":-89.0895,"lo2":-89.0444,"dy":0.0017,"dx":0.0017,"nx":28,"ny":28,"refTime":"2025-11-07T03:00:00:Z","depth":0,"parameterNumber":3,"parameterNumberName":"V-component_of_WINDS"},"data":[0,0,0,0,0,0,0,0,0,0,0,0,0,0,0,0,0,0,0,0,0,0,0,0,0,0,0,0,0,0,0,0,0,0,0,0,0,0,0,0,0,0,0,0,0,0,0,0,0,0,0,0,0,0,0,0,0,0,4.7435,4.7435,0,4.7508,4.7509,4.751,4.7457,4.7455,4.7453,4.745,4.7517,4.7521,4.7525,0,0,0,0,0,0,0,0,0,0,0,0,0,4.7238,4.7242,4.7434,4.7435,4.7436,4.7508,4.7509,4.751,4.7458,4.7455,4.7452,4.7449,4.7516,4.7521,4.7525,0,0,0,0,0,0,0,0,0,0,0,0,0,4.7319,4.7244,4.7434,4.7419,4.7418,4.7508,4.7509,4.751,4.7458,4.7455,4.7451,4.7448,4.7514,4.752,4.7526,4.7632,0,0,4.7544,4.7547,0,0,0,0,0,0,0,0,4.7314,4.7326,4.742,4.742,4.742,4.747,4.7465,4.7551,4.7459,4.7443,4.745,4.7446,4.7504,4.751,4.7532,4.7635,4.7638,4.7545,4.7548,4.7551,4.7552,0,0,0,0,0,0,0,4.7309,4.7323,4.7463,4.7422,4.7421,4.7405,4.7413,4.7481,4.7492,4.7444,4.744,4.745,4.7503,4.7526,4.7533,4.7639,4.7544,4.755,4.7553,4.7556,4.7832,4.7836,0,0,0,0,0,0,4.7306,4.7318,4.7461,4.7466,4.7358,4.7412,4.742,4.7457,4.7491,4.7493,4.7453,4.7448,4.7518,4.7526,4.7535,4.7661,4.7551,4.7556,4.756,4.7828,4.7833,4.7837,0,0,0,0,0,0,4.7302,4.7319,4.7458,4.7391,4.7408,4.7419,4.7461,4.7461,4.7484,4.7498,4.7499,4.7476,4.7515,4.7527,4.7609,4.7663,4.7559,4.7564,4.7824,4.783,4.7835,4.7915,0,0,0,0,0,0,4.7297,4.7318,4.7361,4.7393,4.7411,4.7534,4.7464,4.7465,4.7495,4.7489,4.7519,4.7521,4.7513,4.76,4.7615,4.7669,4.7569,4.7819,4.7827,4.7833,4.7908,4.7923,4.7936,0,0,0,0,0,4.729,4.7379,4.7363,4.7381,4.7466,4.7537,4.7547,4.754,4.75,4.7541,4.755,4.752,4.7655,4.7609,4.7625,4.7682,4.7816,4.7824,4.7833,4.7901,4.792,4.7936,0,0,0,0,0,0,4.735,4.7383,4.7366,4.7468,4.7501,4.7528,4.758,4.756,4.7602,4.7593,4.7579,4.7586,4.7673,4.7685,4.7634,4.7786,4.7728,4.774,4.7775,4.7793,4.7807,4.7802,4.7574,0,0,0,0,0,4.7376,4.7434,4.7458,4.7546,4.7563,4.7569,4.76,4.7592,4.7623,4.7636,4.765,4.768,4.7729,4.7761,4.7807,4.7909,4.7914,4.7956,4.797,4.7981,4.7992,4.8046,4.8065,4.7865,4.7865,4.7865,0,0,4.7428,4.7453,4.749,4.7558,4.7583,4.7641,4.7581,4.7645,4.7687,4.7644,4.7724,4.7736,4.7767,4.786,4.7901,4.7873,4.8048,4.7992,4.8001,4.8006,4.8057,4.8076,4.8092,4.7871,4.787,4.7869,0,0,4.7554,4.7579,4.7656,4.7681,4.772,4.7723,4.7741,4.7772,4.7779,4.786,4.7829,4.7877,4.7962,4.7986,4.8009,4.8144,4.8117,4.8158,4.8232,4.8285,4.8301,4.8314,4.8362,4.838,4.8169,4.8169,4.8169,0,4.7614,4.7703,4.7696,4.7764,4.7793,4.776,4.7836,4.786,4.791,4.793,4.7898,4.8004,4.8023,4.8121,4.8154,4.8173,4.8192,4.8155,4.8299,4.8313,4.8326,4.8371,4.8389,4.8174,4.8173,4.8173,4.8172,0,4.7774,4.7837,4.7893,4.7946,4.7982,4.8053,4.8054,4.809,4.8078,4.8084,4.8165,4.8187,4.8237,4.8259,4.8246,4.8354,4.8336,4.8302,4.8244,4.835,4.8392,4.841,4.8181,4.8179,4.8178,4.8176,0,0,4.7941,4.799,4.801,4.8034,4.8074,4.812,4.8188,4.8239,4.8271,4.8306,4.8361,4.8434,4.8403,4.8429,4.8419,4.8466,4.8571,4.8426,4.8426,4.8452,4.869,4.8716,4.8737,4.8553,4.8556,4.8559,4.8688,0,4.8069,4.8192,4.8187,4.83,4.8357,4.8326,4.8385,4.8414,4.8421,4.8467,4.8473,4.8525,4.8481,4.8496,4.8541,4.8549,4.8618,4.8539,4.8603,4.8605,4.8597,4.8759,4.8786,4.8907,4.8704,4.8707,4.8709,0,4.8235,4.828,4.84,4.8431,4.8455,4.8508,4.8555,4.86,4.8632,4.8633,4.8663,4.8645,4.8711,4.8652,4.8741,4.8687,4.8713,4.872,4.8724,4.873,4.8664,4.8769,4.8945,4.8964,4.8735,4.8733,4.8731,0,4.8345,4.8434,4.8517,4.8538,4.8577,4.8615,4.8632,4.8661,4.8692,4.8731,4.8751,4.8796,4.8821,4.8855,4.8849,4.8806,4.894,4.888,4.8942,4.8942,4.8972,4.897,4.9155,4.8988,4.8987,4.8987,4.8987,0,4.8489,4.8563,4.8567,4.8619,4.87,4.8693,4.8773,4.8785,4.8811,4.8861,4.8836,4.8883,4.8872,4.8919,4.8914,4.8989,4.9,4.9001,4.8999,4.9004,4.9004,4.9021,4.9012,4.8992,4.8991,4.899,4.8989,0,4.8625,4.8631,4.872,4.875,4.8759,4.8818,4.8842,4.8889,4.8894,4.8959,4.8973,4.898,4.9034,4.9031,4.9091,4.9087,4.918,4.9167,4.917,4.9168,4.923,4.9224,4.9432,4.9459,4.9274,4.9276,4.9278,0,4.8717,4.8774,4.8811,4.8845,4.8866,4.8921,4.8953,4.8947,4.8981,4.9021,4.9063,4.9115,4.9156,4.9242,4.9251,4.9296,4.9285,4.9354,4.9291,4.9294,4.9286,4.9283,4.9288,4.9367,4.9369,4.9371,4.9372,0,4.8879,4.888,4.8929,4.8981,4.9021,4.9059,4.9095,4.9123,4.912,4.9159,4.9216,4.9248,4.931,4.9361,4.9405,4.9418,4.9395,4.9392,4.9409,4.9414,4.9414,4.9415,4.9205,4.9387,4.9386,4.9384,4.9384,4.9383,4.8996,4.9046,4.908,4.9136,4.9163,4.9197,4.9243,4.9255,4.9302,4.9355,4.9347,4.941,4.9437,4.9494,4.9512,4.9559,4.9534,4.9558,4.9564,4.957,4.9578,4.9407,4.9567,4.9566,4.9566,4.9565,4.9565,0,4.9158,4.9179,4.923,4.9283,4.9326,4.9302,4.934,4.9377,4.9434,4.9464,4.9505,4.9569,4.9619,4.9631,4.9678,4.9713,4.9703,4.9726,4.9723,4.9727,4.9598,4.9579,4.9733,4.9733,4.9733,4.9733,4.9733,4.9733,4.9247,4.933,4.9334,4.9428,4.9447,4.9512,4.9535,4.9565,4.9589,4.9663,4.9705,4.9714,4.9737,4.9785,4.9828,4.9831,4.9849,4.9876,4.9874,4.9753,4.9736,4.972,4.9702,4.988,4.988,4.9999,5.0,5.0001]}]]